Hourly Data Report for May 10, 2012

All times are specified in Local Standard Time (LST). Add 1 hour to adjust for Daylight Saving Time where and when it is observed.

GANDER INTL A
NEWFOUNDLAND

48°56'13.000" N
54°34'05.000" W
151.20 m
8401703
71803
YQX

Download Data

Hourly Data (May 2012)
Hourly Data Report for May 10, 2012
Temp Definition
°C
Dew Point Temp Definition
°C
Rel Hum Definition
%
Wind Dir Definition
10's deg

Wind Spd Definition
km/h
Visibility Definition
km
Stn Press Definition
kPa
Hmdx Definition


Wind Chill Definition


Weather Definition


TIME
00:30 Legend Double Dagger 7.1 1.6 68 19 21 10.0 99.88     Rain Showers
01:30 Legend Double Dagger 7.0 1.3 67 18 21 10.0 99.83     LegendNANA
02:30 Legend Double Dagger 7.2 1.3 66 20 21 10.0 99.80     Cloudy
03:30 Legend Double Dagger 6.9 3.3 78 19 14 10.0 99.79     Rain Showers
04:30 Legend Double Dagger 6.4 4.6 88 17 18 10.0 99.77     Rain Showers
05:30 Legend Double Dagger 6.5 5.3 92 17 17 10.0 99.80     Rain Showers
06:30 Legend Double Dagger 6.8 5.8 93 17 22 10.0 99.79     Rain Showers
07:30 Legend Double Dagger 7.6 6.4 92 17 15 10.0 99.82     Rain
08:30 Legend Double Dagger 8.4 6.9 90 16 22 10.0 99.81     Rain
09:30 Legend Double Dagger 9.4 7.7 89 16 19 10.0 99.78     Rain
10:30 Legend Double Dagger 11.1 8.0 81 18 29 10.0 99.78     LegendNANA
11:30 Legend Double Dagger 12.8 7.1 68 19 31 10.0 99.77     Cloudy
12:30 Legend Double Dagger 13.3 7.8 69 20 30 10.0 99.76     LegendNANA
13:30 Legend Double Dagger 13.8 8.5 70 20 37 10.0 99.76     LegendNANA
14:30 Legend Double Dagger 14.0 9.1 72 18 27 10.0 99.78     Cloudy
15:30 Legend Double Dagger 14.9 9.5 70 19 32 10.0 99.79     LegendNANA
16:30 Legend Double Dagger 14.0 9.3 73 18 31 10.0 99.81     LegendNANA
17:30 Legend Double Dagger 13.8 10.3 79 19 26 10.0 99.87     Cloudy
18:30 Legend Double Dagger 13.2 10.4 83 19 30 10.0 99.88     LegendNANA
19:30 Legend Double Dagger 12.8 10.5 86 18 30 10.0 99.88     LegendNANA
20:30 Legend Double Dagger 12.6 10.3 86 19 28 10.0 99.93     Cloudy
21:30 Legend Double Dagger 12.1 10.0 87 18 26 10.0 99.91     LegendNANA
22:30 Legend Double Dagger 11.8 9.7 87 17 31 10.0 99.87     LegendNANA
23:30 Legend Double Dagger 11.7 9.3 85 17 28 10.0 99.81     Cloudy

Notes on Data Quality.

Legend

  • E = Estimated
  • M = Missing
  • NA = Not Available
  • ‡ = Partner data that is not subject to review by the National Climate Archives
Date modified: